Terminal Aerodrome Forecast
Issued by NWS Charleston, WV

Current Version | Previous Version | Graphics & Text | Print | Product List | Glossary On
Versions: 1 2 3 4 5 6 7 8 9 10 11 12 13 14 15 16 17 18 19 20 21 22 23 24 25
404
FTUS41 KRLX 080326 AAA
TAFCRW
TAF AMD
KCRW 080326Z 0803/0824 00000KT P6SM SCT160
     FM081200 18004KT 3SM -SN OVC024
     FM081300 19004KT 2SM -RASN OVC019
     FM081400 21004KT 2SM -RASN OVC008
     FM081700 23005KT 5SM -RA OVC008
     FM081900 24005KT P6SM OVC016=

USA.gov is the U.S. government's official web portal to all federal, state and local government web resources and services.